Terminal Aerodrome Forecast
Issued by NWS

Home | Current Version | Previous Version | Text Only | Print | Product List | Glossary On
Versions: 1 2 3 4 5 6 7 8 9 10 11 12 13 14 15 16 17 18 19 20 21 22 23 24 25 26 27 28 29
000
FTUS46 KMTR 072358
TAFSFO
TAF
KSFO 072358Z 0800/0906 11006KT P6SM -RA BKN040 OVC070
      TEMPO 0804/0806 6SM RA BR BKN030 OVC060
     FM080600 12012G18KT P6SM -RA BKN025 OVC040
     FM081200 15010KT P6SM -RA BKN020 OVC035
      TEMPO 0818/0822 4SM -RA BR BKN015 OVC020=

USA.gov is the U.S. government's official web portal to all federal, state and local government web resources and services.